Weather History for Kansas City International, MO

Change the Weather History Date:

Tuesday, January 8, 2013

  Actual Average Record
Temperature  
Mean Temperature 44 °F 29 °F  
Max Temperature 53 °F 38 °F 71 °F (2003)
Min Temperature 34 °F 20 °F -10 °F (1979)
Degree Days  
Heating Degree Days 21 36  
Month to date heating degree days 279 288  
Since 1 July heating degree days 2117 2330  
Cooling Degree Days 0 0  
Month to date cooling degree days 0 0  
Year to date cooling degree days 0 0  
Moisture  
Dew Point 28 °F    
Average Humidity 58    
Maximum Humidity 75    
Minimum Humidity 41    
Precipitation  
Precipitation 0.00 in 0.03 in 0.41 in (1930)
Month to date precipitation T 0.26  
Year to date precipitation T 0.26  
Snow  
Snow 0.00 in 0.10 in 4.80 in (1930)
Month to date snowfall T 1.1  
Since 1 July snowfall 3.7 7.3  
Snow Depth T in    
Sea Level Pressure  
Sea Level Pressure 30.04 in    
Wind  
Wind Speed 14 mph (SSW)    
Max Wind Speed 24 mph    
Max Gust Speed 30 mph    
Visibility 10 miles    
Events      
T = Trace of Precipitation, MM = Missing Value Source: NWS Daily Summary

Daily Weather History Graph

Daily Weather History Graph

Search for Another Location

Airport:

Trip Planner

Search our weather history database for the weather conditions in past years. The results will help you decide how hot, cold, wet, or windy it might be!

Date:

Astronomy

Jan. 08, 2013 Rise Set
Actual Time 7:38 AM CST 5:13 PM CST
Civil Twilight 7:08 AM CST 5:42 PM CST
Nautical Twilight 6:35 AM CST 6:16 PM CST
Astronomical Twilight 6:03 AM CST 6:48 PM CST
Moon 4:12 AM CST (1/8) 2:16 PM CST (1/8)
Length of Visible Light 10h 33m
Length of Day
9h 34m
Waning Crescent, 13% of the Moon is Illuminated
Jan 8
Waning Crescent
Jan 11
New
Jan 18
First Quarter
Jan 26
Full
Feb 3
Last Quarter

Hourly Weather History & Observations

Time (CST) Temp. Windchill Dew Point Humidity Pressure Visibility Wind Dir Wind Speed Gust Speed Precip Events Conditions
12:53 AM 37.0 °F 28.1 °F 26.1 °F 65% 30.04 in 10.0 mi SSW 15.0 mph - N/A   Partly Cloudy
1:53 AM 36.0 °F 27.1 °F 26.1 °F 67% 30.04 in 10.0 mi SSW 13.8 mph - N/A   Clear
2:53 AM 35.1 °F 27.4 °F 26.1 °F 70% 30.05 in 10.0 mi SSW 10.4 mph - N/A   Clear
3:53 AM 35.1 °F 25.5 °F 27.0 °F 72% 30.04 in 10.0 mi SSW 15.0 mph - N/A   Clear
4:53 AM 35.1 °F 26.4 °F 27.0 °F 72% 30.03 in 10.0 mi SSW 12.7 mph - N/A   Clear
5:53 AM 34.0 °F 24.6 °F 27.0 °F 75% 30.02 in 10.0 mi South 13.8 mph - N/A   Clear
6:53 AM 35.1 °F 25.2 °F 27.0 °F 72% 30.01 in 10.0 mi SSW 16.1 mph - N/A   Mostly Cloudy
7:53 AM 35.6 °F 25.5 °F 26.6 °F 70% 30.00 in 10.0 mi SSW 17.3 mph - N/A   Mostly Cloudy
8:53 AM 37.9 °F 28.9 °F 27.0 °F 65% 30.02 in 10.0 mi SSW 16.1 mph - N/A   Mostly Cloudy
9:53 AM 39.9 °F 31.8 °F 27.0 °F 60% 30.04 in 10.0 mi South 15.0 mph - N/A   Mostly Cloudy
10:53 AM 46.0 °F 39.9 °F 28.0 °F 50% 30.02 in 10.0 mi SSW 13.8 mph 24.2 mph N/A   Mostly Cloudy
11:53 AM 48.9 °F - 28.9 °F 46% 29.99 in 10.0 mi SSW 16.1 mph - N/A   Partly Cloudy
12:53 PM 51.1 °F - 30.0 °F 44% 29.97 in 10.0 mi SW 15.0 mph 26.5 mph N/A   Partly Cloudy
1:53 PM 53.1 °F - 30.0 °F 41% 29.97 in 10.0 mi SSW 20.7 mph 26.5 mph N/A   Partly Cloudy
2:53 PM 52.0 °F - 28.9 °F 41% 29.97 in 10.0 mi SW 16.1 mph 21.9 mph N/A   Mostly Cloudy
3:53 PM 52.0 °F - 30.0 °F 43% 29.95 in 10.0 mi SSW 18.4 mph - N/A   Scattered Clouds
4:53 PM 50.0 °F - 30.0 °F 46% 29.99 in 10.0 mi SSW 13.8 mph - N/A   Scattered Clouds
5:53 PM 48.9 °F - 30.0 °F 48% 30.02 in 10.0 mi SSW 15.0 mph - N/A   Partly Cloudy
6:53 PM 46.9 °F - 30.0 °F 52% 30.04 in 10.0 mi SSW 11.5 mph - N/A   Clear
7:53 PM 44.1 °F 39.0 °F 30.0 °F 58% 30.07 in 10.0 mi SSW 9.2 mph - N/A   Clear
8:53 PM 39.9 °F 34.5 °F 30.0 °F 68% 30.09 in 10.0 mi SSW 8.1 mph - N/A   Clear
9:53 PM 39.9 °F 34.5 °F 30.0 °F 68% 30.13 in 10.0 mi WSW 8.1 mph - N/A   Clear
10:53 PM 37.4 °F 32.1 °F 28.4 °F 70% 30.13 in 10.0 mi West 6.9 mph - N/A   Clear
11:53 PM 36.0 °F 30.3 °F 27.0 °F 70% 30.20 in 10.0 mi WSW 6.9 mph - N/A   Clear